Regional Weather Roundup
Issued by NWS Spokane, WA

Home | Current Version | Previous Version | Text Only | Print | Product List | Glossary On
Versions: 1 2 3 4 5 6 7 8 9 10 11 12 13 14 15 16 17 18 19 20 21 22 23 24 25 26 27 28 29 30 31 32 33 34 35 36 37 38 39 40 41 42 43 44 45 46 47 48 49 50
000
NZUS01 KOTX 041110
RWROTX
EASTERN WASHINGTON/NORTHERN IDAHO ROUNDUP
NATIONAL WEATHER SERVICE, SPOKANE WA
400 AM PDT FRI SEP 04 2015

Note: "fair" indicated few or no clouds below 12,000 feet with no
significant weather and/or obstructions to visibility.

...NORTHEAST WASHINGTON AND NORTHERN IDAHO PANHANDLE...

CITY           SKY/WX    TMP DP  RH WIND       PRES   REMARKS
SPOKANE INTL   PTCLDY    47  36  65 CALM      29.95S
SPOKANE DOWNTO CLEAR     44  36  73 NE5       29.96S
COEUR D ALENE  CLEAR     37  30  75 E6        29.96S
DEER PARK      PTCLDY    36  29  75 NE6       29.96S
SANDPOINT      PTCLDY    36  36 100 CALM      29.97S
BONNERS FERRY  PTSUNNY   43  39  87 CALM      29.99S

...SOUTHEAST WASHINGTON AND SOUTHERN IDAHO PANHANDLE...

CITY           SKY/WX    TMP DP  RH WIND       PRES   REMARKS
WALLA WALLA    CLEAR     51  34  52 SE6       29.93S
PULLMAN/MOSCOW CLEAR     44  40  85 E3        29.95F
LEWISTON       CLEAR     47  42  83 E5        29.94S
LOWELL           N/A     49  46  90 N6        29.96F

...COLUMBIA BASIN...

CITY           SKY/WX    TMP DP  RH WIND       PRES   REMARKS
EPHRATA        CLEAR     49  33  54 NE5       29.91S
MOSES LAKE     CLEAR     43  30  60 N7        29.93R
TRI CITIES     CLEAR     42  38  85 N6        29.93S
HERMISTON      CLEAR     41  35  79 CALM      29.93S
PENDLETON      CLEAR     44  33  65 S5        29.93S

...EAST SLOPES CASCADES...

CITY           SKY/WX    TMP DP  RH WIND       PRES   REMARKS
THE DALLES     PTCLDY    51  43  74 CALM      29.94S
YAKIMA         PTCLDY    41  33  73 W3        29.94R
ELLENSBURG     PTCLDY    47  35  63 CALM      29.93S
WENATCHEE      MOCLDY    52  37  56 W5        29.94R
OMAK           CLEAR     52  36  54 N12       29.95R

...SOUTHERN BRITISH COLUMBIA...

CITY           SKY/WX    TMP DP  RH WIND       PRES   REMARKS
PENTICTON      PTCLDY    48  37  66 N9        30.00S
CRANBROOK      PTCLDY    41  36  81 W6        30.02F

...WESTERN MONTANA...

CITY           SKY/WX    TMP DP  RH WIND       PRES   REMARKS
MISSOULA       CLOUDY    41  41 100 MISG      29.97F FOG

...NEIGHBORING CITIES...

CITY           SKY/WX    TMP DP  RH WIND       PRES   REMARKS
SEATTLE        PTCLDY    50  48  93 N3        29.99F
CALGARY        MOCLDY    39  36  87 N14       30.05R



USA.gov is the U.S. government's official web portal to all federal, state and local government web resources and services.